Location: Asheville, NC
(35.6000°N, 82.5500°W)
Time: 17:08:50
(UTC-04:00)

AO-7 - Pass Details

Date: 18 March 2018
Orbit: 1440 x 1459 km, 101.7° (Epoch: 17 June)

Event Time Altitude Azimuth Distance (km) Brightness Sun altitude
Rises 04:52:36 0° 19° (NNE) 4,542 ? -33.2°
Reaches altitude 10° 04:55:26 10° 22° (NNE) 3,559 ? -32.7°
Maximum altitude 05:03:41 68° 105° (ESE) 1,534 ? -31.1°
Enters shadow 05:08:24 29° 180° (S) 2,399 ? -30.3°
